Погода в Жерновце

Россия / Курская область     51°41′15″N   37°51′59″E
темп.,
°C
ветер,
м/с
пор.,
м/с
влажн.,
%
обл.,
%
осадки,
мм/ч
давл.,
гПа
погр.,
м
9 мая, вс
вс900:00+5з81194100 0.0 1008626
03:00+4зсз81291100 0.1 10101013
06:00+3зсз81495100 0.1 1012839
09:00+4сз81286100 0.1 1015929
12:00+6сз7117699 0.1 10161287
15:00+8сз81167100 0.4 10171504
18:00+8сз7106944 0.3 10201382
21:00+4сз411845 0.3 1022245
10 мая, пн
пн1000:00+4сз513845 0.0 1023283
03:00+3сз6138457 0.0 1024273
06:00+4ссз5137794 0.0 1025341
09:00+9с712606 0.0 10251198
12:00+12с912496 0.0 10241620
15:00+13ссв912495 0.0 10241638
18:00+11ссв91461100 0.0 10231363
21:00+10ссв81559100 0.0 1023890
11 мая, вт
вт1100:00+10ссв91766100 0.0 1022632
03:00+9ссв8177599 0.0 1022570
06:00+8ссв81584100 0.3 1022539
09:00+9св81789100 1.1 1022583
12:00+10св7139385 1.4 1023618
15:00+12в6108535 1.6 10231023
18:00+14в5866100 0.1 10231042
21:00+10в3683100 0.1 1024150
12 мая, ср
ср1200:00+9в3788100 0.1 1023186
03:00+7всв389410 0.1 1023165
06:00+8в3793100 0.0 1022217
09:00+11вюв467721 0.0 1022671
12:00+16вюв685551 0.1 10211918
15:00+14юв596479 0.2 1021600
18:00+15в4867100 0.0 1020563
21:00+13в41175100 0.1 1019323
13 мая, чт
чт1300:00+12в387772 0.0 1018146
03:00+10вюв489023 0.0 1017119
06:00+10вюв379091 0.0 1017165
09:00+16ююв586599 0.0 1017672
12:00+19ююв575680 0.0 10161482
15:00+20ююв6852100 0.0 10161973
18:00+19юв5865100 0.0 1016454
21:00+14юв478112 0.0 1016102